SCISAT 1

Last updated on Sun Jun 21 2026 00:03:39 GMT+0000 (Coordinated Universal Time)

1 27858U 03036A 26171.39952715 .00000392 00000+0 54783-4 0 9994 2 27858 73.9283 164.9602 0008450 234.8607 125.1778 14.81450192231922
UTC large
Height (km)
Speed (km/s)
/
Latitude / Longitude
Inclination (degrees)
Orbital Period (minutes)
Azimuth
Elevation
Range (km)
Doppler Factor

Next 0 passes for location: London (51.5072 / 0.1276)

No passes found over London.
SCISAT 1